Location: Brienzwiler
(46.7508°N, 8.1014°E)
Time: 06:53:07
(UTC+00:00)

Cosmos 1892 - Pass Details

Date: 05 July 2020
Orbit: 505 x 523 km, 82.5° (Epoch: 05 August)

Event Time Altitude Azimuth Distance (km) Brightness Sun altitude
Exits shadow 21:07:07 18° 113° (ESE) 1,307 4.2 -13.2°
Maximum altitude 21:08:17 20° 88° (E) 1,206 4.3 -13.3°
Drops below altitude 10° 21:11:08 10° 39° (NE) 1,738 5.6 -13.6°
Sets 21:13:40 0° 23° (NNE) 2,634 6.8 -13.8°
